www.pogodaiklimat.ru

Погода и климат >> Архив погоды >> Аргентина >> Тартагаль


ПОГОДА в Тартагале

  • Прогноз погоды в Тартагале
  • Монитор погоды в Тартагале

АРХИВ ПОГОДЫ в Тартагале

Время (UTC), дата Ветер
(напр.,м/с)
 
Видим.   Явления Облачность Т
(С)
Тd
(С)
f
(%)
Тe
(С)
Тes
(С)
Комфортность P
(гПа)
Po
(гПа)
Тmin
(С)
Tmax
(С)
R
(мм)
R24
(мм)
S
(см)
00 20.03 Ю 4 2000 м слаб. морось 10/10 150 м
[Frnb]
+20.4 +20.1 98 +25 +25 комфорт 1010.6 960.2 +19.6 +23.5 9
06 20.03 Ю 4 2000 м гроза, ливневой дождь {морось} 10/6 150 м
[Cb cap As op]
+20.3 +20.0 98 +24 +24 комфорт 1014.0 963.4 6
09 20.03 Ю 3 5000 м слаб. морось {гроза} 10/10 300 м
[Frnb]
+20.0 +19.4 96 +24 +24 комфорт 1014.0 963.4
12 20.03 Ю 9
{12}
3000 м морось {гроза} 10/10 150 м
[Frnb]
+18.5 +17.9 96 +18 +18 1019.2 967.8 +18.5 +20.6 1
15 20.03 Ю 7 10 км 10/10 300 м
[Sc]
+17.1 +14.7 86 +16 +16 970.3
18 20.03 Ю 9 10 км {морось} 10/4 900 м
[Sc Ac As]
+18.3 +14.2 77 +18 +18 1018.8 967.4 0.2
21 20.03 Ю 7 10 км 10/4 900 м
[Sc Ac As]
+18.5 +13.4 72 +18 +19 1016.6 965.6
00 21.03 Ю 4 10 км 10/10 450 м
[Frnb]
+16.7 +14.2 85 +16 +16 1019.8 968.0 +16.4 +19.4
06 21.03 Ю 4 3000 м морось 10/10 300 м
[Frnb]
+14.1 +13.2 94 +13 +13 1021.9 970.3 1
09 21.03 ЮЗ 5 3000 м морось 10/10 300 м
[Frnb]
+14.0 +13.6 97 +12 +12 1021.4 969.2
12 21.03 Ю 3 4000 м слаб. морось 10/10 150 м
[Frnb]
+14.3 +13.7 96 +13 +13 1021.9 969.8 +13.3 +15.0 3
15 21.03 Ю 3 6000 м слаб. морось 10/10 150 м
[Frnb]
+14.6 +13.9 96 +14 +14 970.0
18 21.03 Ю 3 10 км {морось} 10/10 450 м
[Frnb]
+15.6 +13.8 89 +15 +15 1019.0 967.1 0.4
21 21.03 Ю 1 10 км 9/6 750 м
[Sc Ac As]
+16.8 +14.7 87 +18 +18 1016.7 965.0
00 22.03 штиль 0 10 км 9/6 750 м
[Sc Ac As]
+16.0 +15.3 96 +16 +16 1016.7 965.0 +14.0 +17.0
06 22.03 штиль 0 10 км 10/4 900 м
[Sc Ac As]
+15.2 +14.5 96 +15 +15 1016.7 965.0
09 22.03 штиль 0 10 км 10/0
[Ac As]
+15.2 +14.5 96 +15 +15 1015.4 963.9
12 22.03 штиль 0 10 км 10/3 900 м
[Sc Ac As]
+16.7 +15.0 90 +17 +18 1017.2 965.8 +15.2 +16.7 0.2
15 22.03 штиль 0 10 км 10/3 450 м
[Frnb Ac As]
+18.0 +15.3 84 +18 +23 966.8
18 22.03 штиль 0 10 км 9/4 450 м
[Frnb Ac As]
+19.6 +15.4 77 +21 +26 комфорт 1016.3 964.8
21 22.03 С 1 10 км 6/3 750 м
[Sc Ac As]
+20.5 +16.9 80 +25 +26 комфорт 1015.2 963.8
00 23.03 штиль 0 10 км 10/10 900 м
[Sc]
+18.6 +17.6 94 +20 +20 1016.4 965.0 +16.7 +20.7
06 23.03 З 1 10 км 10/10 900 м
[Sc]
+18.0 +17.4 96 +19 +19 1016.3 965.2
09 23.03 штиль 0 10 км 10/10 900 м
[Frnb]
+18.0 +17.4 96 +18 +18 1015.9 964.8
12 23.03 штиль 0 10 км 9/4 1050 м
[Sc Ac As]
+19.8 +16.2 80 +22 +23 комфорт 1017.1 966.0 +17.5 +19.8
15 23.03 В 3 10 км 9/4 900 м
[Sc Ac As]
+22.6 +16.8 70 +27 +31 душно 1015.9 965.2
18 23.03 В 4 8000 м слаб. дождь 10/5 750 м
[Sc Ac As]
+22.0 +18.5 81 +27 +29 душно 1013.0 962.3 0.0
21 23.03 В 2 10 км 10/6 900 м
[Sc Ac As]
+22.2 +18.4 79 +27 +28 душно 1011.8 960.8
00 24.03 штиль 0 10 км 9/4 900 м
[Sc Ac As]
+21.6 +19.7 89 +27 +27 душно 1013.1 961.6 +19.8 +23.5
06 24.03 штиль 0 10 км 10/0
[Ac As]
+21.2 +20.3 95 +26 +26 душно 1012.8 962.2
12 24.03 Ю 7 10 км 5/5 900 м
[Sc]
+22.3 +18.7 80 +28 +28 душно 1015.1 964.4 +20.2 +22.5 0.0
15 24.03 Ю 7 10 км 10/10 750 м
[Sc]
+23.9 +19.4 76 +29 +29 душно 965.8
18 24.03 Ю 5 10 км 10/5 750 м
[Sc Ac As]
+24.4 +19.8 76 +30 +31 очень
душно
1014.3 963.9
21 24.03 штиль 0 10 км 5/4 900 м
[Cu med, cong Ac und]
+26.4 +20.2 69 +33 +34 очень
душно
1012.3 961.9
00 25.03 штиль 0 10 км 8/0
[Ac As]
+22.6 +21.1 91 +30 +30 очень
душно
1013.9 963.6 +22.3 +26.8
06 25.03 штиль 0 10 км 8/0
[Ac As]
+21.0 +19.4 91 +25 +25 комфорт 1013.8 963.4
09 25.03 штиль 0 10 км 9/4 900 м
[Sc Ac As]
+20.8 +20.2 96 +25 +25 комфорт 1013.4 963.1
12 25.03 Ю 1 8000 м в посл. час морось туман 10/10 300 м
[Frnb]
+21.7 +21.1 96 +28 +28 душно 1015.0 964.6 +20.2 +22.6 0.0
15 25.03 В 3 3000 м слаб. морось 10/10 210 м
[Frnb]
+22.1 +21.2 95 +29 +29 очень
душно
965.3
18 25.03 штиль 0 3000 м слаб. морось {дождь} 10/6 150 м
[Frnb As op]
+21.7 +21.5 99 +28 +30 душно 1013.4 962.7 22
21 25.03 В 1 10 км 9/4 300 м
[Cu med, cong Ac As]
+22.9 +21.2 90 +30 +31 очень
душно
1012.2 961.5
00 26.03 В 1 5000 м слаб. дождь 10/6 600 м
[Sc As op]
+21.6 +21.0 96 +27 +27 душно 1013.5 962.8 +21.0 +23.4 0.2
06 26.03 В 1 5000 м гроза, ливневой дождь 10/6 600 м
[Cb cap As op]
+19.8 +19.5 98 +24 +24 комфорт 1015.0 964.3 27
09 26.03 штиль 0 5000 м гроза, ливневой дождь 10/6 450 м
[Cb cap As op]
+19.4 +19.1 98 +22 +22 комфорт 1017.0 964.3
12 26.03 Ю 7 5000 м в посл. час гроза туман 10/10 210 м
[Frnb]
+18.2 +18.2 100 +18 +18 1018.8 967.4 +18.0 +21.6 22
15 26.03 Ю 4 4000 м дождь 10/6 150 м
[Frnb As op]
+17.7 +17.4 98 +17 +18 969.0
18 26.03 Ю 7 700 м морось {дождь} 10/10 150 м
[Frnb]
+17.2 +16.8 97 +16 +16 1019.1 967.6 5
21 26.03 Ю 7 1000 м морось 10/10 150 м
[Frnb]
+16.5 +16.1 97 +15 +15 1019.0 967.3

 

Местоположение метеостанции Тартагаль (Аргентина): широта -22.62 долгота -63.80 высота над уровнем моря 450 м.

В архиве по умолчанию представлена погода в Тартагале за последнюю неделю. Архивные данные за месяц целиком и за предыдущие месяцы, начиная с января 2011 года, Вы можете получить, выбрав интересующий диапазон дат из раскрывающегося списка и нажав кнопку "Ввод!".


*Определитесь, кто Вы:
робот инопланетянин человек

Внимание! Время в таблицах - всемирное. Для получения местного времени необходимо прибавить поправку, которая равна -3 ч.

Смотрите также архив погоды в соседних городах и на ближайших метеорологических станциях:

Погода в Бермехо (Боливия) (55 км)
Погода в Якуибе (Боливия) (76 км)
Погода в Сан-Рамон-де-ла-Нуэва-Оране (Аргентина) (79 км)
Погода в Тарихе (Боливия) (151 км)
Погода в Вилья-Монтесе (Боливия) (157 км)
Погода в Ла-Кьяке (Аргентина) (194 км)
Погода в Сан-Сальвадор-де-Жужуе (Аргентина) (235 км)
Погода в Пратс-Гиле (Парагвай) (236 км)
Погода в Камири (Боливия) (293 км)
Погода в Сальте (Аргентина) (301 км)

Пояснения к столбцам:

Ветер - указаны скорость ветра в м/с - средняя за 10 мин, порывы в срок и между сроками (в фигурных скобках) и направление, откуда дует ветер: С - северный, СВ - северо-восточный, В - восточный, ЮВ - юго-восточный, Ю - южный, ЮЗ - юго-западный, З - западный, СЗ - северо-западный.
Видимость - горизонтальная дальность видимости в метрах или километрах. При видимости от 1 до 10 км при отсутствии осадков обычно наблюдается дымка, при ухудшении видимости до 1 км и менее - туман. В сухую погоду видимость может ухудшаться дымом, пылью или мглою.
Явления - указаны атмосферные явления, наблюдавшиеся в срок или в последний час перед сроком; фигурными скобками обозначены явления, наблюдавшиеся между сроками (за 1-3 часа до срока); квадратными скобками обозначены град или гололедные отложения с указанием их диаметра в мм.
Облачность - указаны через наклонную черту общая и нижняя облачность в баллах и высота нижней границы облаков в метрах; квадратными скобками обозначены формы облаков: Ci - перистые, Cs - перисто-слоистые, Cc - перисто-кучевые, Ac - высококучевые, As - высокослоистые, Sc - слоисто-кучевые, Ns - слоисто-дождевые, Cu - кучевые, Cb - кучево-дождевые. Подробнее классификацию облаков см. в Атласе облаков (PDF).
T - Температура воздуха - температура, измеренная на высоте 2 м над землей.
Td - Температура точки росы - температура, при понижении до которой содержащийся в воздухе водяной пар достигнет насыщения.
f - Относительная влажность воздуха - влажноcть воздуха, измеренная на высоте 2 м над землей.
Te - Эффективная температура - температура, которую ощущает одетый по сезону человек в тени. Характеристика душности погоды. При расчете учитывается влияние влажности воздуха и скорости ветра на теплоощущения человека.
Tes - Эффективная температура на солнце - температура, которую ощущает человек, с поправкой на солнечный нагрев. Характеристика знойности погоды. Зависит от высоты солнца над горизонтом, облачности и скорости ветра. Ночью, в пасмурную погоду, а также при ветре 12 м/с и более поправка равна нулю.
P - Атмосферное давление - приведенное к уровню моря атмосферное давление.
Po - Атмосферное давление - измеренное на уровне метеостанции атмосферное давление.
Tmin - Минимальная температура - минимум температуры воздуха на высоте 2 м над землей.
Tmax - Максимальная температура - максимум температуры воздуха на высоте 2 м над землей.
R - Количество осадков - Количество выпавших осадков за период времени, мм. При наведении курсора мыши на число - период времени, за который выпало указанное количество осадков.
R24 - Количество осадков - Количество выпавших осадков за 24 часа, мм.
S - Снежный покров - Высота снежного покрова, см. При наведении курсора мыши на число - состояние снежного покрова и степень покрытия местности в баллах.